TimeEDT,TemperatureF,Dew PointF,Humidity,Sea Level PressureIn,VisibilityMPH,Wind Direction,Wind SpeedMPH,Gust SpeedMPH,PrecipitationIn,Events,Conditions,WindDirDegrees,DateUTC
12:54 AM,34.0,32.0,92,30.12,10.0,NNW,12.7,-,N/A,,Overcast,340,2013-04-10 04:54:00
1:54 AM,34.0,32.0,92,30.10,10.0,NNW,6.9,-,N/A,,Overcast,340,2013-04-10 05:54:00
2:21 AM,33.8,32.0,93,30.08,10.0,NNW,5.8,-,N/A,,Overcast,340,2013-04-10 06:21:00
2:34 AM,33.8,32.0,93,30.08,10.0,North,5.8,-,N/A,,Overcast,350,2013-04-10 06:34:00
2:54 AM,34.0,32.0,92,30.08,10.0,North,6.9,-,N/A,,Overcast,360,2013-04-10 06:54:00
3:54 AM,35.1,33.1,92,30.09,10.0,North,8.1,-,N/A,,Overcast,360,2013-04-10 07:54:00
4:54 AM,35.1,33.1,92,30.13,10.0,North,9.2,-,N/A,,Overcast,10,2013-04-10 08:54:00
5:33 AM,35.6,33.8,93,30.11,10.0,NNE,8.1,-,N/A,,Overcast,20,2013-04-10 09:33:00
5:54 AM,35.1,32.0,89,30.13,9.0,NNE,9.2,-,0.00,Snow,Light Snow,30,2013-04-10 09:54:00
6:11 AM,33.8,30.2,87,30.09,2.0,NE,8.1,-,0.03,Snow,Light Snow,40,2013-04-10 10:11:00
6:21 AM,33.8,30.2,87,30.08,5.0,NE,6.9,-,0.05,Rain,Light Rain,40,2013-04-10 10:21:00
6:35 AM,33.8,30.2,87,30.09,6.0,NE,4.6,-,0.08,Rain,Light Rain,50,2013-04-10 10:35:00
6:54 AM,33.1,30.9,92,30.13,7.0,ENE,5.8,-,0.09,Rain,Light Rain,60,2013-04-10 10:54:00
7:14 AM,33.8,30.2,87,30.10,2.5,NE,5.8,-,0.02,Snow,Light Snow,40,2013-04-10 11:14:00
7:25 AM,33.8,30.2,87,30.10,2.0,NNE,6.9,-,0.03,Snow,Light Snow,30,2013-04-10 11:25:00
7:30 AM,32.0,30.2,93,30.11,1.8,NNE,8.1,-,0.04,Snow,Light Snow,20,2013-04-10 11:30:00
7:37 AM,32.0,30.2,93,30.10,1.5,NNE,9.2,-,0.05,Snow,Light Snow,20,2013-04-10 11:37:00
7:54 AM,32.0,30.9,96,30.14,0.8,NNE,10.4,-,0.06,Snow,Light Snow,20,2013-04-10 11:54:00
8:01 AM,32.0,30.2,93,30.10,0.8,NNE,10.4,-,0.01,Snow,Light Snow,30,2013-04-10 12:01:00
8:07 AM,33.8,30.2,87,30.10,1.0,NNE,9.2,-,0.01,Snow,Light Snow,30,2013-04-10 12:07:00
8:11 AM,33.8,30.2,87,30.10,1.2,NE,11.5,-,0.02,Snow,Light Snow,40,2013-04-10 12:11:00
8:25 AM,33.8,30.2,87,30.10,2.5,NE,8.1,-,0.02,Snow,Light Snow,40,2013-04-10 12:25:00
8:32 AM,33.8,30.2,87,30.09,4.0,NE,10.4,-,0.02,Snow,Light Snow,50,2013-04-10 12:32:00
8:54 AM,33.1,30.9,92,30.11,10.0,NE,10.4,-,0.02,,Overcast,50,2013-04-10 12:54:00
9:29 AM,33.8,30.2,87,30.07,1.8,ENE,11.5,-,0.01,Snow,Light Snow,60,2013-04-10 13:29:00
9:41 AM,33.8,30.2,87,30.08,0.8,ENE,10.4,-,0.02,Snow,Light Snow,60,2013-04-10 13:41:00
9:54 AM,33.1,30.9,92,30.13,1.2,ENE,5.8,-,0.03,Snow,Light Snow,70,2013-04-10 13:54:00
10:04 AM,33.8,30.2,87,30.10,2.0,ENE,6.9,-,0.00,Snow,Light Snow,60,2013-04-10 14:04:00
10:13 AM,33.8,32.0,93,30.11,1.5,NE,4.6,-,0.01,Snow,Light Snow,40,2013-04-10 14:13:00
10:28 AM,33.8,32.0,93,30.12,0.8,North,4.6,-,0.02,Snow,Light Snow,360,2013-04-10 14:28:00
10:41 AM,33.8,30.2,87,30.13,1.2,Calm,Calm,-,0.03,Snow,Light Snow,0,2013-04-10 14:41:00
10:52 AM,33.8,30.2,87,30.12,3.0,NNE,5.8,-,0.03,Snow,Light Snow,20,2013-04-10 14:52:00
10:54 AM,33.1,30.9,92,30.14,3.0,NNE,5.8,-,0.04,Snow,Light Snow,30,2013-04-10 14:54:00
11:54 AM,35.1,30.9,85,30.10,10.0,ENE,11.5,-,0.00,,Overcast,60,2013-04-10 15:54:00
12:02 PM,35.6,30.2,81,30.08,10.0,ENE,12.7,-,N/A,,Overcast,60,2013-04-10 16:02:00
12:54 PM,35.1,30.9,85,30.13,10.0,ENE,6.9,-,N/A,,Overcast,60,2013-04-10 16:54:00
1:54 PM,36.0,30.9,82,30.14,10.0,NNE,10.4,-,N/A,,Overcast,30,2013-04-10 17:54:00
2:01 PM,35.6,30.2,81,30.12,10.0,North,12.7,-,N/A,,Overcast,10,2013-04-10 18:01:00
2:19 PM,35.6,30.2,81,30.10,10.0,NNE,11.5,-,N/A,,Overcast,30,2013-04-10 18:19:00
2:54 PM,36.0,30.9,82,30.13,10.0,ENE,8.1,-,N/A,,Overcast,60,2013-04-10 18:54:00
3:54 PM,37.9,30.9,76,30.12,10.0,ENE,10.4,-,N/A,,Overcast,60,2013-04-10 19:54:00
4:30 PM,37.4,30.2,75,30.10,10.0,NNE,10.4,-,N/A,,Overcast,20,2013-04-10 20:30:00
4:54 PM,37.9,28.9,70,30.12,10.0,NNE,9.2,-,N/A,,Overcast,30,2013-04-10 20:54:00
5:54 PM,39.9,30.0,68,30.08,10.0,North,9.2,-,N/A,,Clear,360,2013-04-10 21:54:00
6:54 PM,39.9,28.0,63,30.12,10.0,Calm,Calm,-,N/A,,Clear,0,2013-04-10 22:54:00
7:54 PM,37.9,27.0,65,30.09,10.0,NNE,4.6,-,N/A,,Overcast,20,2013-04-10 23:54:00
8:54 PM,35.1,28.0,76,30.12,10.0,Calm,Calm,-,N/A,,Mostly Cloudy,0,2013-04-11 00:54:00
9:54 PM,34.0,28.9,82,30.12,10.0,Calm,Calm,-,N/A,,Overcast,0,2013-04-11 01:54:00
10:54 PM,30.9,27.0,85,30.10,10.0,Calm,Calm,-,N/A,,Clear,0,2013-04-11 02:54:00
11:54 PM,30.0,27.0,88,30.14,10.0,Calm,Calm,-,N/A,,Clear,0,2013-04-11 03:54:00